Regional Weather Roundup
Issued by NWS

Home | Current Version | Previous Version | Graphics & Text | Print | Product List | Glossary On
Versions: 1 2 3 4 5 6 7 8 9 10 11 12 13 14 15 16 17 18 19 20 21 22 23 24 25 26 27 28 29 30 31 32 33 34 35 36 37 38 39 40 41 42 43 44 45 46 47 48 49 50
000
ASUS43 KLOT 171703
RWRIL

ILLINOIS REGIONAL WEATHER ROUNDUP
NATIONAL WEATHER SERVICE CHICAGO/ROMEOVILLE IL
1100 AM CST TUE JAN 17 2017

NOTE: "FAIR" INDICATES FEW OR NO CLOUDS BELOW 12,000 FEET WITH NO
SIGNIFICANT WEATHER AND/OR OBSTRUCTIONS TO VISIBILITY.

* THESE STATIONS ARE NOT UNDER NWS QUALITY CONTROL. THEY ALSO MAY NOT
  REPORT WEATHER SUCH AS PRECIPITATION OR FOG.

ILZ001-002-007-009-015-016-024-171800-
NORTHWEST ILLINOIS

CITY           SKY/WX    TMP DP  RH WIND       PRES   REMARKS
MOLINE         CLOUDY    38  34  85 W8        29.93S WCI  32
STERLING*      CLOUDY    35  35 100 W12       29.91  FOG     WCI  27
SAVANNA*       CLOUDY    35  35  99 W5        29.91S FOG     WCI  31
$$

ILZ003-004-008-010-011-017-018-171800-
NORTH CENTRAL ILLINOIS

CITY           SKY/WX    TMP DP  RH WIND       PRES   REMARKS
ROCKFORD       FOG       36  35  96 W8        29.90F VSB 1   WCI  30
FREEPORT*      CLOUDY    34  34  99 W8        29.91S FOG     WCI  27
ROCHELLE*      CLOUDY    35  35 100 W10       29.89S FOG     WCI  27
DE KALB*       CLOUDY    36  36  99 W13       29.87F FOG     WCI  28
$$

ILZ005-006-012>014-019>023-171800-
NORTHEAST ILLINOIS

CITY           SKY/WX    TMP DP  RH WIND       PRES   REMARKS
CHICAGO-OHARE  CLOUDY    38  36  92 W12       29.85F WCI  30
CHICAGO-MIDWAY CLOUDY    37  36  96 W12       29.87S WCI  29
AURORA         NOT AVBL
LANSING*       CLOUDY    38  38 100 W15       29.88S WCI  29
JOLIET*        CLOUDY    38  37  99 SW8       29.90S FOG     WCI  32
WAUKEGAN       CLOUDY    37  36  96 W6        29.85R FOG     WCI  32
DUPAGE AIRPORT CLOUDY    38  35  89 W9        29.85F FOG     WCI  31
KANKAKEE*      FOG       38  38  98 W14       29.91F VSB 3/4 WCI  30
WHEELING       CLOUDY    39  36  89 W10       29.86S WCI  32
MORRIS*        CLOUDY    37  36  98 W10       29.90R WCI  29
ROMEOVILLE*    CLOUDY    36  36 100 W9        29.88S WCI  29
NORTHERLY ISL    N/A     39  37  92 W10         N/A  WCI  32
$$

LMZ740>746-171800-
SOUTHERN LAKE MICHIGAN

STATION/POSITION SKY/WX   TEMP    WIND        PRES    VSBY  WAVE
                          AIR SEA DIR/SP/G                  HT/PER
                          (F)     (DEG/KT/KT) (MB)    (MI)  (FT/S)
HARRISON CRIB              39     290/ 12/ 13   N/A
BURNHAM HARBOR             39     250/  6/ 13   N/A
CALUMET HARBOR             40     240/  8/ 13 1010.6F
BURNS HARBOR               38     240/  9/ 12 1011.9S
$$

ILZ025>027-034>036-040-047-049-050-058-095>099-171800-
WEST-CENTRAL ILLINOIS

CITY           SKY/WX    TMP DP  RH WIND       PRES   REMARKS
QUINCY         CLOUDY    37  35  92 W13       30.01R WCI  29
GALESBURG*     CLOUDY    35  35 100 W13       29.95F FOG     WCI  26
MACOMB*        CLOUDY    36  36 100 W15       30.00R WCI  27
JACKSONVILLE*  CLOUDY    39  37  93 W14       29.99S WCI  31
PITTSFIELD*    CLOUDY    39  37  93 W12G17    30.03R FOG     WCI  31
$$

ILZ028>032-037-038-041>044-048-051>054-059>061-171800-
CENTRAL ILLINOIS

CITY           SKY/WX    TMP DP  RH WIND       PRES   REMARKS
BLOOMINGTON    CLOUDY    38  38 100 W20       29.93S FOG     WCI  28
DECATUR        CLOUDY    42  41  96 W14       29.96S
PEORIA         CLOUDY    37  36  96 W12       29.96S WCI  29
LACON*         CLOUDY    37  36  98 W7        29.93F WCI  31
LINCOLN*       CLOUDY    41  41 100 W9        29.96S
SPRINGFIELD    CLOUDY    41  39  93 W15G21    29.98S FOG
TAYLORVILLE    CLOUDY    42  40  90 W15G22    29.98S
$$

ILZ033-039-045-046-055>057-062-063-171800-
EAST-CENTRAL ILLINOIS

CITY           SKY/WX    TMP DP  RH WIND       PRES   REMARKS
CHAMPAIGN      CLOUDY    44  40  85 W16G23    29.94F
RANTOUL*       CLOUDY    44  43  96 W13       29.93S
MATTOON        CLOUDY    43  40  89 W13G20    29.96S
PARIS*         CLOUDY    44  42  93 W13       29.97S
$$

ILZ079-100>102-171800-
SOUTHWEST ILLINOIS

CITY           SKY/WX    TMP DP  RH WIND       PRES   REMARKS
ALTON          CLOUDY    43  39  87 W14       30.03R
BELLEVILLE     CLOUDY    46  41  82 W16       30.03R
CAHOKIA*       CLOUDY    46  37  71 W12       30.04R
SPARTA*        CLOUDY    43  38  84 W9G16     30.06S
$$

ILZ064>066-069>071-074>076-080>082-084>086-088>090-092>094-171800-
SOUTH-CENTRAL ILLINOIS

CITY           SKY/WX    TMP DP  RH WIND       PRES   REMARKS
CARBONDALE     CLOUDY    45  39  81 W8        30.07
CAIRO*         MOSUNNY   46  42  85 SW8       30.09R
EFFINGHAM*     CLOUDY    44  42  92 SW9       30.01S
MARION         CLOUDY    46  45  93 NW12      30.07R
MT. VERNON     CLOUDY    46  40  79 SW14      30.04R
CENTRALIA*     CLOUDY    46  42  86 W13       30.02S
SALEM*         CLOUDY    46  40  80 W13       30.02S
METROPOLIS*    PTSUNNY   49  42  77 SW10      30.07S
$$

ILZ067-068-072-073-078-083-087-091-171800-
SOUTHEAST ILLINOIS

CITY           SKY/WX    TMP DP  RH WIND       PRES   REMARKS
LAWRENCEVILLE  CLOUDY    47  42  83 W9        30.00F
FLORA*         CLOUDY    47  41  78 W13       30.02S
FAIRFIELD*     CLOUDY    46  40  79 SW5       30.03R
HARRISBURG*    CLOUDY    46  41  84 W13       30.05F
ROBINSON*      CLOUDY    46  41  82 SW14      30.00F
CARMI*         CLOUDY    45  40  83 NW12G18   30.04F
$$

ABBREVIATIONS USED IN REMARKS
   TC - TEMPERATURE IN CELSIUS
  WCI - WIND CHILL INDEX
   HX - HEAT INDEX
  VSB - VISIBILITY
$$





USA.gov is the U.S. government's official web portal to all federal, state and local government web resources and services.